Main page


Airports :

Kinloss, Scotland

RAF Kinloss

latitude: 57-39N, longitude: 003-34W, elevation: 7 m

Current weather observation

The report was made 52 minutes ago, at 16:50 UTC
Wind 7 kt from the West/Northwest
Temperature 7°C
Humidity 53%
Pressure 1030 hPa
Visibility 10 km or more

METAR: EGQK 201650Z AUTO 30007KT 9999 NCD 07/M02 Q1030

Time: 17:42 (17:42 UTC)

TAF: missing

Weather observations and forecasts of more than 4000 airports (METAR and TAF reports).

The available stations are represented by yellow and red dots on the map.

Hover mouse over dot to see the name of the station.

Then click to see weather observations and forecasts.

To change the map : click on the green buttons with a black cross to zoom in, on the green button with a dash to zoom out, or on the green arrows for adjacent maps.